Time,TemperatureF,DewpointF,PressureIn,WindDirection,WindDirectionDegrees,WindSpeedMPH,WindSpeedGustMPH,Humidity,HourlyPrecipIn,Conditions,Clouds,dailyrainin,SoftwareType,DateUTC
2013-03-30 00:02:00,47.6,39.7,30.31,NE,55,1.0,0.0,74,0.00,CLR,,0.00,WeatherDisplay:10.37,2013-03-30 05:02:00,
2013-03-30 00:07:00,47.6,39.7,30.31,NE,55,1.1,1.1,74,0.00,CLR,,0.00,WeatherDisplay:10.37,2013-03-30 05:07:00,
2013-03-30 00:12:00,47.6,39.7,30.31,NE,55,1.1,1.1,74,0.00,CLR,,0.00,WeatherDisplay:10.37,2013-03-30 05:12:00,
2013-03-30 00:17:00,47.6,40.1,30.31,NE,55,0.0,0.0,75,0.00,CLR,,0.00,WeatherDisplay:10.37,2013-03-30 05:17:00,
2013-03-30 00:22:00,47.4,39.9,30.31,NE,55,0.0,0.7,75,0.00,CLR,,0.00,WeatherDisplay:10.37,2013-03-30 05:22:00,
2013-03-30 00:27:00,47.4,39.9,30.31,NNE,30,3.5,3.5,75,0.00,CLR,,0.00,WeatherDisplay:10.37,2013-03-30 05:27:00,
2013-03-30 00:32:00,47.4,39.9,30.31,NNE,29,2.0,2.0,75,0.00,CLR,,0.00,WeatherDisplay:10.37,2013-03-30 05:32:00,
2013-03-30 00:37:00,47.4,39.9,30.31,ENE,62,0.0,0.1,75,0.00,CLR,,0.00,WeatherDisplay:10.37,2013-03-30 05:37:00,
2013-03-30 00:42:00,47.4,40.2,30.31,NNE,14,0.0,0.0,76,0.00,CLR,,0.00,WeatherDisplay:10.37,2013-03-30 05:42:00,
2013-03-30 00:47:00,47.3,40.1,30.31,East,96,4.0,4.0,76,0.00,CLR,,0.00,WeatherDisplay:10.37,2013-03-30 05:47:00,
2013-03-30 00:52:00,47.3,40.1,30.31,NE,40,3.5,3.5,76,0.00,CLR,,0.00,WeatherDisplay:10.37,2013-03-30 05:52:00,
2013-03-30 00:57:00,47.3,40.5,30.31,NE,44,3.5,3.5,77,0.00,CLR,,0.00,WeatherDisplay:10.37,2013-03-30 05:57:00,
2013-03-30 01:03:00,47.1,40.3,30.31,NE,37,3.5,3.5,77,0.00,CLR,,0.00,WeatherDisplay:10.37,2013-03-30 06:03:00,
2013-03-30 01:08:00,47.1,40.6,30.30,NE,56,2.3,2.3,78,0.00,CLR,,0.00,WeatherDisplay:10.37,2013-03-30 06:08:00,
2013-03-30 01:13:00,47.0,40.5,30.30,NNE,24,3.5,3.5,78,0.00,CLR,,0.00,WeatherDisplay:10.37,2013-03-30 06:13:00,
2013-03-30 01:18:00,47.0,40.8,30.30,NNE,24,3.5,3.5,79,0.00,CLR,,0.00,WeatherDisplay:10.37,2013-03-30 06:18:00,
2013-03-30 01:23:00,46.8,40.6,30.30,ENE,71,1.1,1.1,79,0.00,CLR,,0.00,WeatherDisplay:10.37,2013-03-30 06:23:00,
2013-03-30 01:28:00,46.8,40.6,30.30,NNE,16,1.1,0.0,79,0.00,CLR,,0.00,WeatherDisplay:10.37,2013-03-30 06:28:00,
2013-03-30 01:33:00,46.8,41.0,30.30,NNE,24,3.5,3.5,80,0.00,CLR,,0.00,WeatherDisplay:10.37,2013-03-30 06:33:00,
2013-03-30 01:38:00,46.8,41.0,30.30,NE,54,1.1,0.0,80,0.00,CLR,,0.00,WeatherDisplay:10.37,2013-03-30 06:38:00,
2013-03-30 01:43:00,46.8,41.0,30.30,ENE,75,3.5,3.5,80,0.00,CLR,,0.00,WeatherDisplay:10.37,2013-03-30 06:43:00,
2013-03-30 01:48:00,46.8,41.0,30.30,ENE,60,3.5,3.5,80,0.00,CLR,,0.00,WeatherDisplay:10.37,2013-03-30 06:48:00,
2013-03-30 01:53:00,46.8,41.0,30.30,East,83,3.5,3.5,80,0.00,CLR,,0.00,WeatherDisplay:10.37,2013-03-30 06:53:00,
2013-03-30 01:58:00,46.8,41.0,30.29,NE,43,3.5,3.5,80,0.00,CLR,,0.00,WeatherDisplay:10.37,2013-03-30 06:58:00,
2013-03-30 02:03:00,46.8,41.0,30.29,NE,52,3.5,3.5,80,0.00,CLR,,0.00,WeatherDisplay:10.37,2013-03-30 07:03:00,
2013-03-30 02:08:00,46.8,41.0,30.30,NE,45,1.1,1.1,80,0.00,CLR,,0.00,WeatherDisplay:10.37,2013-03-30 07:08:00,
2013-03-30 02:13:00,46.8,41.0,30.29,NE,44,1.1,1.1,80,0.00,CLR,,0.00,WeatherDisplay:10.37,2013-03-30 07:13:00,
2013-03-30 02:18:00,46.8,41.0,30.29,NNE,24,4.6,4.6,80,0.00,CLR,,0.00,WeatherDisplay:10.37,2013-03-30 07:18:00,
2013-03-30 02:23:00,46.8,41.0,30.29,NNE,24,3.5,3.5,80,0.00,CLR,,0.00,WeatherDisplay:10.37,2013-03-30 07:23:00,
2013-03-30 02:28:00,46.8,41.0,30.29,NNE,24,2.3,2.3,80,0.00,CLR,,0.00,WeatherDisplay:10.37,2013-03-30 07:28:00,
2013-03-30 02:33:00,46.7,40.9,30.29,NNE,24,1.1,0.0,80,0.00,CLR,,0.00,WeatherDisplay:10.37,2013-03-30 07:33:00,
2013-03-30 02:38:00,46.7,40.9,30.29,NNE,32,0.0,0.0,80,0.00,CLR,,0.00,WeatherDisplay:10.37,2013-03-30 07:38:00,
2013-03-30 02:43:00,46.7,41.2,30.29,NNE,32,0.0,0.0,81,0.00,CLR,,0.00,WeatherDisplay:10.37,2013-03-30 07:43:00,
2013-03-30 02:48:00,46.7,41.2,30.29,NNE,32,1.1,1.1,81,0.00,CLR,,0.00,WeatherDisplay:10.37,2013-03-30 07:48:00,
2013-03-30 02:53:00,46.7,41.2,30.29,NNE,32,0.0,0.0,81,0.00,CLR,,0.00,WeatherDisplay:10.37,2013-03-30 07:53:00,
2013-03-30 02:58:00,46.7,41.2,30.29,NNE,32,1.1,1.1,81,0.00,CLR,,0.00,WeatherDisplay:10.37,2013-03-30 07:58:00,
2013-03-30 03:03:00,46.7,41.2,30.29,NNE,17,3.0,0.0,81,0.00,CLR,,0.00,WeatherDisplay:10.37,2013-03-30 08:03:00,
2013-03-30 03:08:00,46.7,41.2,30.29,NNE,17,0.0,0.0,81,0.00,CLR,,0.00,WeatherDisplay:10.37,2013-03-30 08:08:00,
2013-03-30 03:13:00,46.7,41.2,30.29,NNE,17,1.1,0.0,81,0.00,CLR,,0.00,WeatherDisplay:10.37,2013-03-30 08:13:00,
2013-03-30 03:18:00,46.7,41.2,30.29,NNE,17,0.0,0.0,81,0.00,CLR,,0.00,WeatherDisplay:10.37,2013-03-30 08:18:00,
2013-03-30 03:23:00,46.5,41.0,30.28,NNE,17,0.0,0.0,81,0.00,CLR,,0.00,WeatherDisplay:10.37,2013-03-30 08:23:00,
2013-03-30 03:28:00,46.5,41.0,30.28,NNE,17,1.1,1.1,81,0.00,CLR,,0.00,WeatherDisplay:10.37,2013-03-30 08:28:00,
2013-03-30 03:33:00,46.5,41.3,30.28,NNE,17,0.0,0.0,82,0.00,CLR,,0.00,WeatherDisplay:10.37,2013-03-30 08:33:00,
2013-03-30 03:38:00,46.5,41.3,30.28,NNE,17,0.0,0.0,82,0.00,CLR,,0.00,WeatherDisplay:10.37,2013-03-30 08:38:00,
2013-03-30 03:43:00,46.4,41.2,30.28,NNE,17,0.0,0.0,82,0.00,CLR,,0.00,WeatherDisplay:10.37,2013-03-30 08:43:00,
2013-03-30 03:48:00,46.4,41.2,30.28,NNE,17,1.1,0.0,82,0.00,CLR,,0.00,WeatherDisplay:10.37,2013-03-30 08:48:00,
2013-03-30 03:53:00,46.2,41.0,30.28,NNE,17,0.0,0.0,82,0.00,CLR,,0.00,WeatherDisplay:10.37,2013-03-30 08:53:00,
2013-03-30 03:58:00,46.2,41.3,30.28,NNE,17,0.0,0.0,83,0.00,CLR,,0.00,WeatherDisplay:10.37,2013-03-30 08:58:00,
2013-03-30 04:03:00,46.1,41.2,30.28,NNE,17,0.0,0.0,83,0.00,CLR,,0.00,WeatherDisplay:10.37,2013-03-30 09:03:00,
2013-03-30 04:08:00,46.0,41.1,30.28,NNE,17,0.0,0.0,83,0.00,CLR,,0.00,WeatherDisplay:10.37,2013-03-30 09:08:00,
2013-03-30 04:13:00,46.0,41.1,30.27,NNE,17,0.0,0.0,83,0.00,CLR,,0.00,WeatherDisplay:10.37,2013-03-30 09:13:00,
2013-03-30 04:18:00,45.8,40.9,30.27,NNE,17,0.0,0.0,83,0.00,CLR,,0.00,WeatherDisplay:10.37,2013-03-30 09:18:00,
2013-03-30 04:23:00,45.7,40.8,30.27,NNE,17,0.0,0.0,83,0.00,CLR,,0.00,WeatherDisplay:10.37,2013-03-30 09:23:00,
2013-03-30 04:28:00,45.5,40.9,30.27,NNE,17,0.0,0.0,84,0.00,CLR,,0.00,WeatherDisplay:10.37,2013-03-30 09:28:00,
2013-03-30 04:33:00,45.4,40.8,30.26,NNE,17,0.0,0.0,84,0.00,CLR,,0.00,WeatherDisplay:10.37,2013-03-30 09:33:00,
2013-03-30 04:34:00,45.4,40.8,30.26,NNE,17,0.0,0.0,84,0.00,CLR,,0.00,WeatherDisplay:10.37,2013-03-30 09:34:00,
2013-03-30 04:39:00,45.1,40.6,30.27,NNE,17,0.0,0.0,84,0.00,CLR,,0.00,WeatherDisplay:10.37,2013-03-30 09:39:00,
2013-03-30 04:44:00,44.9,40.4,30.27,NNE,17,0.0,0.0,84,0.00,CLR,,0.00,WeatherDisplay:10.37,2013-03-30 09:44:00,
2013-03-30 04:49:00,44.6,40.4,30.27,NNE,17,0.0,0.0,85,0.00,CLR,,0.00,WeatherDisplay:10.37,2013-03-30 09:49:00,
2013-03-30 04:54:00,44.3,40.1,30.27,NNE,17,0.0,0.0,85,0.00,CLR,,0.00,WeatherDisplay:10.37,2013-03-30 09:54:00,
2013-03-30 04:59:00,44.1,40.2,30.27,NNE,17,0.0,0.0,86,0.00,CLR,,0.00,WeatherDisplay:10.37,2013-03-30 09:59:00,
2013-03-30 05:04:00,43.9,40.0,30.27,NNE,17,0.0,0.0,86,0.00,CLR,,0.00,WeatherDisplay:10.37,2013-03-30 10:04:00,
2013-03-30 05:09:00,43.8,39.9,30.27,NNE,17,0.0,0.0,86,0.00,CLR,,0.00,WeatherDisplay:10.37,2013-03-30 10:09:00,
2013-03-30 05:14:00,43.6,39.7,30.28,NNE,17,0.0,0.0,86,0.00,CLR,,0.00,WeatherDisplay:10.37,2013-03-30 10:14:00,
2013-03-30 05:19:00,43.5,39.9,30.28,NNE,17,0.0,0.0,87,0.00,CLR,,0.00,WeatherDisplay:10.37,2013-03-30 10:19:00,
2013-03-30 05:24:00,43.5,39.9,30.28,NNE,17,0.0,0.0,87,0.00,CLR,,0.00,WeatherDisplay:10.37,2013-03-30 10:24:00,
2013-03-30 05:29:00,43.3,39.7,30.28,NNE,17,0.0,0.0,87,0.00,CLR,,0.00,WeatherDisplay:10.37,2013-03-30 10:29:00,
2013-03-30 05:34:00,43.2,39.9,30.28,NNE,17,0.0,0.0,88,0.00,CLR,,0.00,WeatherDisplay:10.37,2013-03-30 10:34:00,
2013-03-30 05:39:00,43.1,39.8,30.28,NNE,17,0.0,0.0,88,0.00,CLR,,0.00,WeatherDisplay:10.37,2013-03-30 10:39:00,
2013-03-30 05:44:00,42.9,39.6,30.28,NNE,17,0.0,0.0,88,0.00,CLR,,0.00,WeatherDisplay:10.37,2013-03-30 10:44:00,
2013-03-30 05:49:00,42.8,39.5,30.28,NNE,17,0.0,0.0,88,0.00,CLR,,0.00,WeatherDisplay:10.37,2013-03-30 10:49:00,
2013-03-30 05:54:00,42.6,39.3,30.28,NNE,17,0.0,0.0,88,0.00,CLR,,0.00,WeatherDisplay:10.37,2013-03-30 10:54:00,
2013-03-30 05:59:00,42.5,39.2,30.28,NNE,17,0.0,0.0,88,0.00,CLR,,0.00,WeatherDisplay:10.37,2013-03-30 10:59:00,
2013-03-30 06:04:00,42.3,39.0,30.28,NNE,17,0.0,0.0,88,0.00,CLR,,0.00,WeatherDisplay:10.37,2013-03-30 11:04:00,
2013-03-30 06:09:00,42.1,38.8,30.28,NNE,17,0.0,0.0,88,0.00,CLR,,0.00,WeatherDisplay:10.37,2013-03-30 11:09:00,
2013-03-30 06:14:00,41.9,38.6,30.28,NNE,17,0.0,0.0,88,0.00,CLR,,0.00,WeatherDisplay:10.37,2013-03-30 11:14:00,
2013-03-30 06:19:00,41.6,38.3,30.28,NNE,17,0.0,0.0,88,0.00,CLR,,0.00,WeatherDisplay:10.37,2013-03-30 11:19:00,
2013-03-30 06:24:00,41.5,38.5,30.28,NNE,17,0.0,0.0,89,0.00,CLR,,0.00,WeatherDisplay:10.37,2013-03-30 11:24:00,
2013-03-30 06:29:00,41.3,38.3,30.28,NNE,17,0.0,0.0,89,0.00,CLR,,0.00,WeatherDisplay:10.37,2013-03-30 11:29:00,
2013-03-30 06:34:00,41.2,38.2,30.29,NNE,17,0.0,0.0,89,0.00,CLR,,0.00,WeatherDisplay:10.37,2013-03-30 11:34:00,
2013-03-30 06:39:00,41.1,38.1,30.30,NNE,17,0.0,0.0,89,0.00,CLR,,0.00,WeatherDisplay:10.37,2013-03-30 11:39:00,
2013-03-30 06:44:00,41.1,38.4,30.30,NNE,17,0.0,0.0,90,0.00,CLR,,0.00,WeatherDisplay:10.37,2013-03-30 11:44:00,
2013-03-30 06:49:00,41.2,38.5,30.30,NNE,17,0.0,0.0,90,0.00,CLR,,0.00,WeatherDisplay:10.37,2013-03-30 11:49:00,
2013-03-30 06:54:00,41.2,38.5,30.30,NNE,17,0.0,0.0,90,0.00,CLR,,0.00,WeatherDisplay:10.37,2013-03-30 11:54:00,
2013-03-30 06:59:00,41.2,38.5,30.30,NNE,17,0.0,0.0,90,0.00,CLR,,0.00,WeatherDisplay:10.37,2013-03-30 11:59:00,
2013-03-30 07:04:00,41.2,38.5,30.29,NNE,17,0.0,0.0,90,0.00,CLR,,0.00,WeatherDisplay:10.37,2013-03-30 12:04:00,
2013-03-30 07:09:00,41.3,38.6,30.30,NNE,17,0.0,0.0,90,0.00,CLR,,0.00,WeatherDisplay:10.37,2013-03-30 12:09:00,
2013-03-30 07:14:00,41.6,38.9,30.30,NNE,17,0.0,0.0,90,0.00,CLR,,0.00,WeatherDisplay:10.37,2013-03-30 12:14:00,
2013-03-30 07:19:00,41.9,39.2,30.30,NNE,17,0.0,0.0,90,0.00,CLR,,0.00,WeatherDisplay:10.37,2013-03-30 12:19:00,
2013-03-30 07:24:00,42.3,39.6,30.30,NNE,17,0.0,0.0,90,0.00,CLR,,0.00,WeatherDisplay:10.37,2013-03-30 12:24:00,
2013-03-30 07:29:00,42.9,40.2,30.30,NNE,17,0.0,0.0,90,0.00,CLR,,0.00,WeatherDisplay:10.37,2013-03-30 12:29:00,
2013-03-30 07:34:00,43.3,40.3,30.30,NNE,17,0.0,0.0,89,0.00,CLR,,0.00,WeatherDisplay:10.37,2013-03-30 12:34:00,
2013-03-30 07:39:00,43.8,40.5,30.30,NNE,17,0.0,0.0,88,0.00,CLR,,0.00,WeatherDisplay:10.37,2013-03-30 12:39:00,
2013-03-30 07:44:00,44.1,40.5,30.30,NNE,17,0.0,0.0,87,0.00,CLR,,0.00,WeatherDisplay:10.37,2013-03-30 12:44:00,
2013-03-30 07:49:00,44.6,40.7,30.30,NNE,17,0.0,0.0,86,0.00,CLR,,0.00,WeatherDisplay:10.37,2013-03-30 12:49:00,
2013-03-30 07:54:00,44.9,41.0,30.30,NNE,17,0.0,0.0,86,0.00,CLR,,0.00,WeatherDisplay:10.37,2013-03-30 12:54:00,
2013-03-30 07:59:00,45.2,41.0,30.30,NNE,17,0.0,0.0,85,0.00,CLR,,0.00,WeatherDisplay:10.37,2013-03-30 12:59:00,
2013-03-30 08:04:00,45.5,40.9,30.30,NNE,17,1.1,0.0,84,0.00,CLR,,0.00,WeatherDisplay:10.37,2013-03-30 13:04:00,
2013-03-30 08:09:00,45.8,40.9,30.30,NNE,17,0.0,0.0,83,0.00,CLR,,0.00,WeatherDisplay:10.37,2013-03-30 13:09:00,
2013-03-30 08:14:00,46.0,41.1,30.30,NNE,17,0.0,0.0,83,0.00,CLR,,0.00,WeatherDisplay:10.37,2013-03-30 13:14:00,
2013-03-30 08:19:00,46.4,41.2,30.31,NNE,17,0.0,0.0,82,0.00,CLR,,0.00,WeatherDisplay:10.37,2013-03-30 13:19:00,
2013-03-30 08:25:00,46.7,41.5,30.31,NNE,17,0.0,1.0,82,0.00,CLR,,0.00,WeatherDisplay:10.37,2013-03-30 13:25:00,
2013-03-30 08:30:00,47.1,41.6,30.30,NNE,17,0.0,0.1,81,0.00,CLR,,0.00,WeatherDisplay:10.37,2013-03-30 13:30:00,
2013-03-30 08:35:00,47.7,42.4,30.30,NNE,17,0.0,1.0,82,0.00,CLR,,0.00,WeatherDisplay:10.37,2013-03-30 13:35:00,
2013-03-30 08:40:00,48.3,42.4,30.30,NNE,17,1.0,3.0,80,0.00,CLR,,0.00,WeatherDisplay:10.37,2013-03-30 13:40:00,
2013-03-30 08:45:00,49.0,42.4,30.30,NNE,17,0.0,2.0,78,0.00,CLR,,0.00,WeatherDisplay:10.37,2013-03-30 13:45:00,
2013-03-30 08:50:00,49.6,42.3,30.30,ESE,119,1.0,1.1,76,0.00,CLR,,0.00,WeatherDisplay:10.37,2013-03-30 13:50:00,
2013-03-30 08:55:00,49.9,42.3,30.29,NE,45,1.0,5.0,75,0.00,CLR,,0.00,WeatherDisplay:10.37,2013-03-30 13:55:00,
2013-03-30 09:00:00,50.2,42.2,30.29,NE,46,0.0,4.0,74,0.00,CLR,,0.00,WeatherDisplay:10.37,2013-03-30 14:00:00,
2013-03-30 09:05:00,50.4,42.1,30.29,NE,46,2.0,2.0,73,0.00,CLR,,0.00,WeatherDisplay:10.37,2013-03-30 14:05:00,
2013-03-30 09:10:00,50.5,42.5,30.29,North,10,4.6,0.0,74,0.00,CLR,,0.00,WeatherDisplay:10.37,2013-03-30 14:10:00,
2013-03-30 09:15:00,50.7,42.4,30.28,NNE,22,3.5,3.5,73,0.00,CLR,,0.00,WeatherDisplay:10.37,2013-03-30 14:15:00,
2013-03-30 09:20:00,50.8,42.5,30.28,NNE,32,3.5,3.5,73,0.00,CLR,,0.00,WeatherDisplay:10.37,2013-03-30 14:20:00,
2013-03-30 09:25:00,50.8,42.5,30.28,East,83,3.5,3.5,73,0.00,CLR,,0.00,WeatherDisplay:10.37,2013-03-30 14:25:00,
2013-03-30 09:30:00,51.1,42.7,30.28,East,83,1.1,1.1,73,0.00,CLR,,0.00,WeatherDisplay:10.37,2013-03-30 14:30:00,
2013-03-30 09:35:00,51.4,42.3,30.28,East,95,3.5,3.5,71,0.00,CLR,,0.00,WeatherDisplay:10.37,2013-03-30 14:35:00,
2013-03-30 09:40:00,51.9,43.9,30.28,NNE,19,3.5,3.5,74,0.00,CLR,,0.00,WeatherDisplay:10.37,2013-03-30 14:40:00,
2013-03-30 09:45:00,52.5,42.6,30.28,NNE,31,1.1,1.1,69,0.00,CLR,,0.00,WeatherDisplay:10.37,2013-03-30 14:45:00,
2013-03-30 09:50:00,52.9,43.0,30.28,NNE,31,1.1,1.1,69,0.00,CLR,,0.00,WeatherDisplay:10.37,2013-03-30 14:50:00,
2013-03-30 09:55:00,53.1,43.6,30.27,NNW,337,3.5,3.5,70,0.00,CLR,,0.00,WeatherDisplay:10.37,2013-03-30 14:55:00,
2013-03-30 10:00:00,53.5,42.8,30.28,NNE,29,0.0,0.0,67,0.00,CLR,,0.00,WeatherDisplay:10.37,2013-03-30 15:00:00,
2013-03-30 10:05:00,53.6,42.9,30.28,NE,44,3.5,3.5,67,0.00,CLR,,0.00,WeatherDisplay:10.37,2013-03-30 15:05:00,
2013-03-30 10:10:00,54.2,44.6,30.27,NNE,30,3.0,3.0,70,0.00,CLR,,0.00,WeatherDisplay:10.37,2013-03-30 15:10:00,
2013-03-30 10:15:00,54.8,43.3,30.28,NNE,24,0.0,0.0,65,0.00,CLR,,0.00,WeatherDisplay:10.37,2013-03-30 15:15:00,
2013-03-30 10:20:00,55.4,44.2,30.27,NNE,18,0.0,0.0,66,0.00,CLR,,0.00,WeatherDisplay:10.37,2013-03-30 15:20:00,
2013-03-30 10:25:00,55.7,44.1,30.27,NNE,18,0.0,0.0,65,0.00,CLR,,0.00,WeatherDisplay:10.37,2013-03-30 15:25:00,
2013-03-30 10:30:00,55.7,43.3,30.27,NNE,18,1.1,0.0,63,0.00,CLR,,0.00,WeatherDisplay:10.37,2013-03-30 15:30:00,
2013-03-30 10:35:00,55.7,43.7,30.27,NNE,18,0.0,0.0,64,0.00,CLR,,0.00,WeatherDisplay:10.37,2013-03-30 15:35:00,
2013-03-30 10:40:00,56.0,44.8,30.27,NNE,18,2.3,2.3,66,0.00,CLR,,0.00,WeatherDisplay:10.37,2013-03-30 15:40:00,
2013-03-30 10:45:00,56.5,44.0,30.26,North,10,3.5,3.5,63,0.00,CLR,,0.00,WeatherDisplay:10.37,2013-03-30 15:45:00,
2013-03-30 10:50:00,56.7,44.7,30.26,NE,50,3.5,3.5,64,0.00,CLR,,0.00,WeatherDisplay:10.37,2013-03-30 15:50:00,
2013-03-30 10:55:00,57.2,44.3,30.26,NE,50,2.3,2.3,62,0.00,CLR,,0.00,WeatherDisplay:10.37,2013-03-30 15:55:00,
2013-03-30 11:00:00,58.0,45.0,30.26,NE,42,3.5,3.5,62,0.00,CLR,,0.00,WeatherDisplay:10.37,2013-03-30 16:00:00,
2013-03-30 11:05:00,57.8,43.6,30.26,NNE,15,2.3,2.3,59,0.00,CLR,,0.00,WeatherDisplay:10.37,2013-03-30 16:05:00,
2013-03-30 11:10:00,58.1,44.7,30.26,North,11,0.0,0.0,61,0.00,CLR,,0.00,WeatherDisplay:10.37,2013-03-30 16:10:00,
2013-03-30 11:15:00,58.6,45.2,30.26,North,5,0.0,0.0,61,0.00,CLR,,0.00,WeatherDisplay:10.37,2013-03-30 16:15:00,
2013-03-30 11:20:00,59.3,45.8,30.26,NE,34,2.3,2.3,61,0.00,CLR,,0.00,WeatherDisplay:10.37,2013-03-30 16:20:00,
2013-03-30 11:25:00,59.6,44.8,30.25,North,10,2.3,2.3,58,0.00,CLR,,0.00,WeatherDisplay:10.37,2013-03-30 16:25:00,
2013-03-30 11:30:00,60.2,44.4,30.25,North,360,3.5,3.5,56,0.00,CLR,,0.00,WeatherDisplay:10.37,2013-03-30 16:30:00,
2013-03-30 11:35:00,60.7,43.9,30.25,NE,37,1.1,1.1,54,0.00,CLR,,0.00,WeatherDisplay:10.37,2013-03-30 16:35:00,
2013-03-30 11:40:00,60.7,44.9,30.24,NNE,30,0.0,0.0,56,0.00,CLR,,0.00,WeatherDisplay:10.37,2013-03-30 16:40:00,
2013-03-30 11:45:00,61.0,45.2,30.24,ENE,68,3.5,3.5,56,0.00,CLR,,0.00,WeatherDisplay:10.37,2013-03-30 16:45:00,
2013-03-30 11:50:00,61.3,44.5,30.24,NE,40,0.0,0.0,54,0.00,CLR,,0.00,WeatherDisplay:10.37,2013-03-30 16:50:00,
2013-03-30 11:55:00,61.8,43.5,30.23,SW,223,3.0,3.0,51,0.00,CLR,,0.00,WeatherDisplay:10.37,2013-03-30 16:55:00,
2013-03-30 12:00:00,61.6,43.3,30.23,East,100,3.5,3.5,51,0.00,CLR,,0.00,WeatherDisplay:10.37,2013-03-30 17:00:00,
2013-03-30 12:05:00,61.2,44.9,30.23,ENE,59,4.6,4.6,55,0.00,CLR,,0.00,WeatherDisplay:10.37,2013-03-30 17:05:00,
2013-03-30 12:10:00,61.5,43.2,30.23,East,86,0.0,0.0,51,0.00,CLR,,0.00,WeatherDisplay:10.37,2013-03-30 17:10:00,
2013-03-30 12:15:00,61.8,43.5,30.23,ESE,119,1.1,0.0,51,0.00,CLR,,0.00,WeatherDisplay:10.37,2013-03-30 17:15:00,
2013-03-30 12:20:00,62.1,43.2,30.22,East,82,3.5,3.5,50,0.00,CLR,,0.00,WeatherDisplay:10.37,2013-03-30 17:20:00,
2013-03-30 12:25:00,62.4,43.5,30.22,ESE,111,3.0,3.0,50,0.00,CLR,,0.00,WeatherDisplay:10.37,2013-03-30 17:25:00,
2013-03-30 12:30:00,62.6,43.2,30.21,ESE,111,0.0,0.0,49,0.00,CLR,,0.00,WeatherDisplay:10.37,2013-03-30 17:30:00,
2013-03-30 12:35:00,62.9,44.0,30.21,SSW,194,0.0,0.0,50,0.00,CLR,,0.00,WeatherDisplay:10.37,2013-03-30 17:35:00,
2013-03-30 12:40:00,63.5,42.9,30.21,NE,51,3.5,3.5,47,0.00,CLR,,0.00,WeatherDisplay:10.37,2013-03-30 17:40:00,
2013-03-30 12:45:00,63.5,44.0,30.21,WNW,292,1.1,0.0,49,0.00,CLR,,0.00,WeatherDisplay:10.37,2013-03-30 17:45:00,
2013-03-30 12:50:00,63.7,43.1,30.20,SSW,208,3.0,3.0,47,0.00,CLR,,0.00,WeatherDisplay:10.37,2013-03-30 17:50:00,
2013-03-30 12:55:00,63.7,45.2,30.20,North,349,3.5,3.5,51,0.00,CLR,,0.00,WeatherDisplay:10.37,2013-03-30 17:55:00,
2013-03-30 13:00:00,64.3,43.6,30.19,North,5,1.0,0.0,47,0.00,CLR,,0.00,WeatherDisplay:10.37,2013-03-30 18:00:00,
2013-03-30 13:05:00,65.0,43.7,30.19,NNE,21,0.0,0.0,46,0.00,CLR,,0.00,WeatherDisplay:10.37,2013-03-30 18:05:00,
2013-03-30 13:10:00,65.6,44.8,30.19,WSW,257,3.5,3.5,47,0.00,CLR,,0.00,WeatherDisplay:10.37,2013-03-30 18:10:00,
2013-03-30 13:15:00,65.6,44.8,30.19,West,267,1.1,0.0,47,0.00,CLR,,0.00,WeatherDisplay:10.37,2013-03-30 18:15:00,
2013-03-30 13:20:00,65.6,43.1,30.19,SE,129,3.5,3.5,44,0.00,CLR,,0.00,WeatherDisplay:10.37,2013-03-30 18:20:00,
2013-03-30 13:25:00,66.0,44.6,30.18,WNW,297,1.1,1.1,46,0.00,CLR,,0.00,WeatherDisplay:10.37,2013-03-30 18:25:00,
2013-03-30 13:30:00,66.3,45.5,30.18,WNW,297,0.0,0.0,47,0.00,CLR,,0.00,WeatherDisplay:10.37,2013-03-30 18:30:00,
2013-03-30 13:35:00,66.6,44.0,30.17,South,189,1.1,0.0,44,0.00,CLR,,0.00,WeatherDisplay:10.37,2013-03-30 18:35:00,
2013-03-30 13:40:00,66.8,44.2,30.17,ESE,111,3.5,3.5,44,0.00,CLR,,0.00,WeatherDisplay:10.37,2013-03-30 18:40:00,
2013-03-30 13:45:00,66.6,45.7,30.17,WNW,294,2.3,2.3,47,0.00,CLR,,0.00,WeatherDisplay:10.37,2013-03-30 18:45:00,
2013-03-30 13:50:00,66.9,44.9,30.17,East,80,2.0,2.0,45,0.00,CLR,,0.00,WeatherDisplay:10.37,2013-03-30 18:50:00,
2013-03-30 13:55:00,67.1,44.4,30.17,WSW,240,1.1,1.1,44,0.00,CLR,,0.00,WeatherDisplay:10.37,2013-03-30 18:55:00,
2013-03-30 14:00:00,67.4,44.7,30.16,North,351,3.5,3.5,44,0.00,CLR,,0.00,WeatherDisplay:10.37,2013-03-30 19:00:00,
2013-03-30 14:05:00,67.6,44.9,30.16,NE,55,3.5,3.5,44,0.00,CLR,,0.00,WeatherDisplay:10.37,2013-03-30 19:05:00,
2013-03-30 14:10:00,67.1,43.2,30.16,ENE,72,0.0,0.0,42,0.00,CLR,,0.00,WeatherDisplay:10.37,2013-03-30 19:10:00,
2013-03-30 14:15:00,67.1,43.8,30.16,East,80,1.1,0.0,43,0.00,CLR,,0.00,WeatherDisplay:10.37,2013-03-30 19:15:00,
2013-03-30 14:20:00,66.9,44.3,30.15,ESE,103,0.0,0.0,44,0.00,CLR,,0.00,WeatherDisplay:10.37,2013-03-30 19:20:00,
2013-03-30 14:25:00,67.3,44.0,30.15,ESE,103,0.0,0.0,43,0.00,CLR,,0.00,WeatherDisplay:10.37,2013-03-30 19:25:00,
2013-03-30 14:30:00,67.6,43.7,30.15,SW,221,0.0,0.0,42,0.00,CLR,,0.00,WeatherDisplay:10.37,2013-03-30 19:30:00,
2013-03-30 14:35:00,67.8,43.9,30.15,SSE,148,1.1,1.1,42,0.00,CLR,,0.00,WeatherDisplay:10.37,2013-03-30 19:35:00,
2013-03-30 14:40:00,67.6,43.7,30.15,SSE,148,1.1,0.0,42,0.00,CLR,,0.00,WeatherDisplay:10.37,2013-03-30 19:40:00,
2013-03-30 14:45:00,67.8,45.1,30.15,SE,130,0.0,0.0,44,0.00,CLR,,0.00,WeatherDisplay:10.37,2013-03-30 19:45:00,
2013-03-30 14:50:00,68.1,44.1,30.14,South,182,0.0,0.0,42,0.00,CLR,,0.00,WeatherDisplay:10.37,2013-03-30 19:50:00,
2013-03-30 14:55:00,67.9,44.0,30.14,WSW,243,0.0,0.1,42,0.00,CLR,,0.00,WeatherDisplay:10.37,2013-03-30 19:55:00,
2013-03-30 15:00:00,67.9,44.0,30.14,South,182,0.0,0.0,42,0.00,CLR,,0.00,WeatherDisplay:10.37,2013-03-30 20:00:00,
2013-03-30 15:05:00,67.9,44.0,30.14,South,190,1.1,0.0,42,0.00,CLR,,0.00,WeatherDisplay:10.37,2013-03-30 20:05:00,
2013-03-30 15:10:00,67.9,44.6,30.14,SSW,192,1.1,0.0,43,0.00,CLR,,0.00,WeatherDisplay:10.37,2013-03-30 20:10:00,
2013-03-30 15:15:00,68.3,46.1,30.13,SSW,192,1.1,0.0,45,0.00,CLR,,0.00,WeatherDisplay:10.37,2013-03-30 20:15:00,
2013-03-30 15:20:00,68.3,44.9,30.13,SSW,192,0.0,0.0,43,0.00,CLR,,0.00,WeatherDisplay:10.37,2013-03-30 20:20:00,
2013-03-30 15:25:00,68.1,45.4,30.13,South,188,1.1,1.1,44,0.00,CLR,,0.00,WeatherDisplay:10.37,2013-03-30 20:25:00,
2013-03-30 15:30:00,67.9,45.2,30.12,South,190,0.0,0.0,44,0.00,CLR,,0.00,WeatherDisplay:10.37,2013-03-30 20:30:00,
2013-03-30 15:35:00,67.8,45.7,30.12,SE,141,3.5,3.5,45,0.00,CLR,,0.00,WeatherDisplay:10.37,2013-03-30 20:35:00,
2013-03-30 15:40:00,67.8,46.8,30.12,SE,139,0.0,0.0,47,0.00,CLR,,0.00,WeatherDisplay:10.37,2013-03-30 20:40:00,
2013-03-30 15:45:00,67.8,45.7,30.12,ESE,119,0.0,0.0,45,0.00,CLR,,0.00,WeatherDisplay:10.37,2013-03-30 20:45:00,
2013-03-30 15:50:00,67.6,46.1,30.12,ESE,119,0.0,0.0,46,0.00,CLR,,0.00,WeatherDisplay:10.37,2013-03-30 20:50:00,
2013-03-30 15:55:00,67.6,45.5,30.11,ESE,119,0.0,0.0,45,0.00,CLR,,0.00,WeatherDisplay:10.37,2013-03-30 20:55:00,
2013-03-30 16:00:00,67.4,45.3,30.12,ESE,119,1.1,0.0,45,0.00,CLR,,0.00,WeatherDisplay:10.37,2013-03-30 21:00:00,
2013-03-30 16:05:00,67.3,45.2,30.12,ESE,119,0.0,0.0,45,0.00,CLR,,0.00,WeatherDisplay:10.37,2013-03-30 21:05:00,
2013-03-30 16:10:00,67.3,45.2,30.12,ESE,118,0.0,0.0,45,0.00,CLR,,0.00,WeatherDisplay:10.37,2013-03-30 21:10:00,
2013-03-30 16:15:00,67.3,45.2,30.12,ESE,118,0.0,0.0,45,0.00,CLR,,0.00,WeatherDisplay:10.37,2013-03-30 21:15:00,
2013-03-30 16:20:00,66.9,45.4,30.12,ESE,118,0.0,0.0,46,0.00,CLR,,0.00,WeatherDisplay:10.37,2013-03-30 21:20:00,
2013-03-30 16:25:00,66.8,46.5,30.12,ESE,118,0.0,0.0,48,0.00,CLR,,0.00,WeatherDisplay:10.37,2013-03-30 21:25:00,
2013-03-30 16:30:00,66.4,47.7,30.13,WSW,248,1.0,1.0,51,0.00,CLR,,0.01,WeatherDisplay:10.37,2013-03-30 21:30:00,
2013-03-30 16:35:00,65.3,53.2,30.14,SSW,196,4.6,4.6,65,0.01,RA,,0.01,WeatherDisplay:10.37,2013-03-30 21:35:00,
2013-03-30 16:40:00,63.5,53.9,30.14,SW,217,2.0,2.3,71,0.01,RA,,0.02,WeatherDisplay:10.37,2013-03-30 21:40:00,
2013-03-30 16:45:00,61.8,54.2,30.15,South,177,3.5,3.5,76,0.02,RA,,0.02,WeatherDisplay:10.37,2013-03-30 21:45:00,
2013-03-30 16:50:00,60.7,54.5,30.15,SW,215,2.3,2.3,80,0.03,RA,,0.03,WeatherDisplay:10.37,2013-03-30 21:50:00,
2013-03-30 16:55:00,59.8,54.6,30.15,WSW,258,2.3,2.3,83,0.03,RA,,0.04,WeatherDisplay:10.37,2013-03-30 21:55:00,
2013-03-30 17:01:00,59.3,54.8,30.15,WSW,252,2.3,2.3,85,0.04,RA,,0.04,WeatherDisplay:10.37,2013-03-30 22:01:00,
2013-03-30 17:06:00,58.9,54.7,30.16,South,184,1.0,1.8,86,0.05,RA,,0.05,WeatherDisplay:10.37,2013-03-30 22:06:00,
2013-03-30 17:11:00,58.4,54.9,30.16,South,183,1.1,1.1,88,0.05,RA,,0.05,WeatherDisplay:10.37,2013-03-30 22:11:00,
2013-03-30 17:16:00,58.3,55.1,30.16,South,190,2.3,2.3,89,0.07,RA,,0.07,WeatherDisplay:10.37,2013-03-30 22:16:00,
2013-03-30 17:21:00,58.0,55.1,30.16,SSE,157,1.1,0.0,90,0.08,RA,,0.08,WeatherDisplay:10.37,2013-03-30 22:21:00,
2013-03-30 17:26:00,57.8,54.9,30.17,SW,216,2.3,2.3,90,0.09,RA,,0.09,WeatherDisplay:10.37,2013-03-30 22:26:00,
2013-03-30 17:31:00,57.6,55.0,30.16,SW,220,0.0,0.0,91,0.10,RA,,0.11,WeatherDisplay:10.37,2013-03-30 22:31:00,
2013-03-30 17:36:00,57.5,54.9,30.16,SW,219,2.3,2.3,91,0.12,RA,,0.13,WeatherDisplay:10.37,2013-03-30 22:36:00,
2013-03-30 17:41:00,57.5,55.2,30.16,SW,219,0.0,0.0,92,0.14,RA,,0.15,WeatherDisplay:10.37,2013-03-30 22:41:00,
2013-03-30 17:46:00,57.5,55.2,30.16,South,187,2.3,2.3,92,0.15,RA,,0.17,WeatherDisplay:10.37,2013-03-30 22:46:00,
2013-03-30 17:51:00,57.3,55.0,30.16,SW,217,0.0,0.0,92,0.16,RA,,0.19,WeatherDisplay:10.37,2013-03-30 22:51:00,
2013-03-30 17:56:00,57.3,55.0,30.16,SW,217,0.0,0.0,92,0.17,RA,,0.20,WeatherDisplay:10.37,2013-03-30 22:56:00,
2013-03-30 18:01:00,57.3,55.3,30.16,SW,217,0.0,0.0,93,0.17,RA,,0.21,WeatherDisplay:10.37,2013-03-30 23:01:00,
2013-03-30 18:06:00,57.3,55.3,30.15,SW,214,0.0,0.0,93,0.17,RA,,0.22,WeatherDisplay:10.37,2013-03-30 23:06:00,
2013-03-30 18:11:00,57.2,55.2,30.15,SW,214,0.0,0.0,93,0.18,RA,,0.23,WeatherDisplay:10.37,2013-03-30 23:11:00,
2013-03-30 18:16:00,57.2,55.2,30.15,SW,214,0.0,0.0,93,0.17,RA,,0.23,WeatherDisplay:10.37,2013-03-30 23:16:00,
2013-03-30 18:21:00,57.0,55.0,30.15,SW,214,0.0,0.0,93,0.15,CLR,,0.23,WeatherDisplay:10.37,2013-03-30 23:21:00,
2013-03-30 18:26:00,57.0,55.0,30.15,SW,214,0.0,0.0,93,0.14,CLR,,0.23,WeatherDisplay:10.37,2013-03-30 23:26:00,
2013-03-30 18:31:00,57.0,55.0,30.15,SW,214,0.0,0.0,93,0.13,RA,,0.24,WeatherDisplay:10.37,2013-03-30 23:31:00,
2013-03-30 18:36:00,57.0,55.0,30.14,SW,214,0.0,0.0,93,0.11,RA,,0.24,WeatherDisplay:10.37,2013-03-30 23:36:00,
2013-03-30 18:41:00,56.9,54.9,30.14,SW,214,0.0,0.0,93,0.09,CLR,,0.24,WeatherDisplay:10.37,2013-03-30 23:41:00,
2013-03-30 18:46:00,56.7,54.7,30.14,SW,214,0.0,0.0,93,0.07,CLR,,0.24,WeatherDisplay:10.37,2013-03-30 23:46:00,
2013-03-30 18:51:00,56.7,55.0,30.14,SW,214,0.0,0.0,94,0.05,CLR,,0.24,WeatherDisplay:10.37,2013-03-30 23:51:00,
2013-03-30 18:56:00,56.7,55.0,30.14,SW,214,0.0,0.0,94,0.05,RA,,0.25,WeatherDisplay:10.37,2013-03-30 23:56:00,
2013-03-30 19:01:00,56.7,55.0,30.14,SW,214,0.0,0.0,94,0.04,RA,,0.25,WeatherDisplay:10.37,2013-03-31 00:01:00,
2013-03-30 19:06:00,56.7,55.0,30.13,SW,214,0.0,0.0,94,0.03,,,0.25,WeatherDisplay:10.37,2013-03-31 00:06:00,
2013-03-30 19:11:00,56.6,54.9,30.12,SW,214,0.0,0.0,94,0.02,CLR,,0.25,WeatherDisplay:10.37,2013-03-31 00:11:00,
2013-03-30 19:16:00,56.6,54.9,30.12,SW,214,0.0,0.0,94,0.02,CLR,,0.25,WeatherDisplay:10.37,2013-03-31 00:16:00,
2013-03-30 19:21:00,56.5,54.8,30.12,SW,214,0.0,0.0,94,0.02,CLR,,0.25,WeatherDisplay:10.37,2013-03-31 00:21:00,
2013-03-30 19:26:00,56.5,54.8,30.12,SW,214,0.0,0.0,94,0.03,RA,,0.26,WeatherDisplay:10.37,2013-03-31 00:26:00,
2013-03-30 19:31:00,56.3,54.6,30.12,SW,214,0.0,0.0,94,0.02,RA,,0.26,WeatherDisplay:10.37,2013-03-31 00:31:00,
2013-03-30 19:36:00,56.3,54.6,30.12,SW,214,0.0,0.0,94,0.02,CLR,,0.26,WeatherDisplay:10.37,2013-03-31 00:36:00,
2013-03-30 19:41:00,56.3,54.6,30.11,SW,214,0.0,0.0,94,0.02,CLR,,0.26,WeatherDisplay:10.37,2013-03-31 00:41:00,
2013-03-30 19:46:00,56.2,54.5,30.11,SW,214,0.0,0.0,94,0.03,RA,,0.27,WeatherDisplay:10.37,2013-03-31 00:46:00,
2013-03-30 19:51:00,56.2,54.5,30.12,SW,214,0.0,0.0,94,0.03,RA,,0.27,WeatherDisplay:10.37,2013-03-31 00:51:00,
2013-03-30 19:56:00,56.2,54.5,30.12,SW,214,0.0,0.0,94,0.02,,,0.27,WeatherDisplay:10.37,2013-03-31 00:56:00,
2013-03-30 20:01:00,56.2,54.5,30.12,SW,214,0.0,0.0,94,0.02,CLR,,0.27,WeatherDisplay:10.37,2013-03-31 01:01:00,
2013-03-30 20:06:00,56.2,54.5,30.11,SW,214,0.0,0.0,94,0.02,CLR,,0.27,WeatherDisplay:10.37,2013-03-31 01:06:00,
2013-03-30 20:11:00,56.2,54.8,30.11,SW,214,0.0,0.0,95,0.02,CLR,,0.27,WeatherDisplay:10.37,2013-03-31 01:11:00,
2013-03-30 20:16:00,56.2,54.8,30.11,SW,214,0.0,0.0,95,0.02,CLR,,0.27,WeatherDisplay:10.37,2013-03-31 01:16:00,
2013-03-30 20:21:00,56.2,54.8,30.11,SW,214,0.0,0.0,95,0.03,RA,,0.28,WeatherDisplay:10.37,2013-03-31 01:21:00,
2013-03-30 20:26:00,56.2,54.8,30.10,SW,214,0.0,0.0,95,0.02,RA,,0.28,WeatherDisplay:10.37,2013-03-31 01:26:00,
2013-03-30 20:31:00,56.2,54.8,30.10,SW,214,0.0,0.0,95,0.02,CLR,,0.28,WeatherDisplay:10.37,2013-03-31 01:31:00,
2013-03-30 20:37:00,56.2,54.8,30.10,SW,214,0.0,0.0,95,0.03,RA,,0.29,WeatherDisplay:10.37,2013-03-31 01:37:00,
2013-03-30 20:42:00,56.2,54.8,30.10,SW,214,0.0,0.0,95,0.03,,,0.29,WeatherDisplay:10.37,2013-03-31 01:42:00,
2013-03-30 20:47:00,56.0,54.6,30.10,SW,214,0.0,0.0,95,0.03,RA,,0.30,WeatherDisplay:10.37,2013-03-31 01:47:00,
2013-03-30 20:52:00,56.0,54.6,30.10,SW,214,0.0,0.0,95,0.03,RA,,0.30,WeatherDisplay:10.37,2013-03-31 01:52:00,
2013-03-30 20:57:00,56.0,54.6,30.10,SW,214,0.0,0.0,95,0.04,RA,,0.31,WeatherDisplay:10.37,2013-03-31 01:57:00,
2013-03-30 21:02:00,56.0,54.6,30.10,SW,214,0.0,0.0,95,0.04,RA,,0.31,WeatherDisplay:10.37,2013-03-31 02:02:00,
2013-03-30 21:07:00,56.0,54.6,30.10,SW,214,0.0,0.0,95,0.04,,,0.31,WeatherDisplay:10.37,2013-03-31 02:07:00,
2013-03-30 21:12:00,56.0,54.6,30.10,SW,214,0.0,0.0,95,0.04,CLR,,0.31,WeatherDisplay:10.37,2013-03-31 02:12:00,
2013-03-30 21:17:00,56.0,54.6,30.10,SW,214,0.0,0.0,95,0.05,RA,,0.32,WeatherDisplay:10.37,2013-03-31 02:17:00,
2013-03-30 21:22:00,55.9,54.5,30.10,SW,214,0.0,0.0,95,0.04,RA,,0.32,WeatherDisplay:10.37,2013-03-31 02:22:00,
2013-03-30 21:27:00,55.9,54.5,30.10,SW,214,0.0,0.0,95,0.05,RA,,0.33,WeatherDisplay:10.37,2013-03-31 02:27:00,
2013-03-30 21:32:00,55.9,54.5,30.10,SW,214,0.0,0.0,95,0.05,RA,,0.34,WeatherDisplay:10.37,2013-03-31 02:32:00,
2013-03-30 21:37:00,55.9,54.5,30.11,SW,214,0.0,0.0,95,0.05,RA,,0.35,WeatherDisplay:10.37,2013-03-31 02:37:00,
2013-03-30 21:42:00,55.9,54.5,30.11,SW,214,0.0,0.0,95,0.07,RA,,0.36,WeatherDisplay:10.37,2013-03-31 02:42:00,
2013-03-30 21:47:00,56.0,54.6,30.11,SW,214,0.0,0.0,95,0.07,RA,,0.37,WeatherDisplay:10.37,2013-03-31 02:47:00,
2013-03-30 21:52:00,55.9,54.5,30.11,SW,214,0.0,0.0,95,0.08,RA,,0.38,WeatherDisplay:10.37,2013-03-31 02:52:00,
2013-03-30 21:57:00,55.9,54.5,30.10,SW,214,0.0,0.0,95,0.07,RA,,0.38,WeatherDisplay:10.37,2013-03-31 02:57:00,
2013-03-30 22:02:00,56.0,54.9,30.10,SW,214,0.0,0.0,96,0.08,RA,,0.39,WeatherDisplay:10.37,2013-03-31 03:02:00,
2013-03-30 22:07:00,55.9,54.8,30.10,SW,214,0.0,0.0,96,0.08,RA,,0.39,WeatherDisplay:10.37,2013-03-31 03:07:00,
2013-03-30 22:12:00,55.9,54.8,30.09,SW,214,0.0,0.0,96,0.09,RA,,0.40,WeatherDisplay:10.37,2013-03-31 03:12:00,
2013-03-30 22:17:00,55.9,54.5,30.09,SW,214,0.0,0.0,95,0.08,RA,,0.40,WeatherDisplay:10.37,2013-03-31 03:17:00,
2013-03-30 22:22:00,55.9,54.8,30.09,SW,214,0.0,0.0,96,0.08,CLR,,0.40,WeatherDisplay:10.37,2013-03-31 03:22:00,
2013-03-30 22:27:00,55.9,54.8,30.09,SW,214,0.0,0.0,96,0.08,RA,,0.41,WeatherDisplay:10.37,2013-03-31 03:27:00,
2013-03-30 22:32:00,55.9,54.8,30.09,SW,214,0.0,0.0,96,0.07,RA,,0.41,WeatherDisplay:10.37,2013-03-31 03:32:00,
2013-03-30 22:37:00,55.9,54.8,30.09,SW,214,0.0,0.0,96,0.08,RA,,0.42,WeatherDisplay:10.37,2013-03-31 03:37:00,
2013-03-30 22:42:00,55.9,54.8,30.08,SW,214,0.0,0.0,96,0.06,RA,,0.42,WeatherDisplay:10.37,2013-03-31 03:42:00,
2013-03-30 22:47:00,55.9,54.8,30.08,SW,214,0.0,0.0,96,0.06,RA,,0.43,WeatherDisplay:10.37,2013-03-31 03:47:00,
2013-03-30 22:52:00,55.9,54.8,30.08,SW,214,0.0,0.0,96,0.06,RA,,0.44,WeatherDisplay:10.37,2013-03-31 03:52:00,
2013-03-30 22:57:00,55.9,54.8,30.08,SW,214,0.0,0.0,96,0.06,RA,,0.44,WeatherDisplay:10.37,2013-03-31 03:57:00,
2013-03-30 23:00:00,55.9,54.8,30.08,SW,214,0.0,0.0,96,0.07,RA,,0.45,WeatherDisplay:10.37,2013-03-31 04:00:00,
2013-03-30 23:05:00,55.7,54.6,30.08,SW,214,0.0,0.0,96,0.07,RA,,0.46,WeatherDisplay:10.37,2013-03-31 04:05:00,
2013-03-30 23:10:00,55.6,54.5,30.08,SW,214,0.0,0.0,96,0.06,RA,,0.46,WeatherDisplay:10.37,2013-03-31 04:10:00,
2013-03-30 23:15:00,55.6,54.5,30.08,SW,214,0.0,0.0,96,0.07,RA,,0.47,WeatherDisplay:10.37,2013-03-31 04:15:00,
2013-03-30 23:20:00,55.6,54.5,30.08,SW,214,0.0,0.0,96,0.07,RA,,0.47,WeatherDisplay:10.37,2013-03-31 04:20:00,
2013-03-30 23:25:00,55.4,54.3,30.08,SW,214,0.0,0.0,96,0.07,RA,,0.48,WeatherDisplay:10.37,2013-03-31 04:25:00,
2013-03-30 23:30:00,55.4,54.3,30.08,SW,214,0.0,0.0,96,0.07,RA,,0.48,WeatherDisplay:10.37,2013-03-31 04:30:00,
2013-03-30 23:35:00,55.4,54.3,30.07,SW,214,0.0,0.0,96,0.07,CLR,,0.49,WeatherDisplay:10.37,2013-03-31 04:35:00,
2013-03-30 23:40:00,55.4,54.3,30.07,SW,214,0.0,0.0,96,0.07,RA,,0.49,WeatherDisplay:10.37,2013-03-31 04:40:00,
2013-03-30 23:45:00,55.4,54.3,30.06,SW,214,0.0,0.0,96,0.06,RA,,0.49,WeatherDisplay:10.37,2013-03-31 04:45:00,
2013-03-30 23:50:00,55.4,54.3,30.06,SW,214,0.0,0.0,96,0.07,RA,,0.50,WeatherDisplay:10.37,2013-03-31 04:50:00,
2013-03-30 23:55:00,55.4,54.3,30.06,SW,214,0.0,0.0,96,0.06,RA,,0.50,WeatherDisplay:10.37,2013-03-31 04:55:00,